Find Starlink 31164

NORAD ID: 58733 Int'l Des: 2024-005 Owner: SPXS Country: US Constellation: starlink operational
LEOCIRCULAR

Current View

Loading 3D Globe...

About Starlink 31164

Starlink 31164 (NORAD 58733) is a starlink constellation satellite (v2 mini) launched Jan 7, 2024 by SPXS of US. It operates in LEO, CIRCULAR orbit with a mass of 730.00 kg.

About Starlink 31164

Description loading...

Upcoming Passes

Passes for default location (London). Set your location on the main map for personalized predictions.

Altitude History

Loading altitude history...

Two-Line Element Set

1 58733U 24005F 26161.96934401 .00000491 00000-0 27368-4 0 9993
2 58733 43.0001 52.6109 0000897 232.1247 127.9523 15.27580197134703
Epoch: Jun 10, 2026 • Age: 58 hours

Current Status

Altitude 486.5 km
Velocity 7.63 km/s
Sub-Earth Point 41.73°N, 64.24°E
Launch Date Jan 7, 2024
Age 2.4 years
Type internet

Technical Details

Classification Payload
Mass 730.00 kg
Dry Mass 700.00 kg
Total Mass 730.00 kg
Length 0.30 m
Diameter 4.10 m
Span 29.00 m
Shape Box + pan
Manufacturer SPXS
Bus Type Starlink V2M
Phase Status In Orbit
Owner/State SPXS/US

Most Searched